Location: La Comballaz
(46.3780°N, 7.0817°E)
Time: 19:11:08
(UTC+00:00)

N. Korean satellite - Pass Details

Date: 14 December 2021
Orbit: 446 x 492 km, 97.3° (Epoch: 18 January)

Event Time Altitude Azimuth Distance (km) Brightness Sun altitude
Rises 16:50:46 0° 204° (SSW) 2,489 10.9 -10.8°
Reaches altitude 10° 16:53:23 10° 226° (SW) 1,610 10.4 -11.2°
Maximum altitude 16:55:40 17° 267° (W) 1,258 9.8 -11.6°
Drops below altitude 10° 16:57:56 10° 309° (NW) 1,604 9.6 -11.9°
Sets 17:00:33 0° 331° (NNW) 2,475 10.3 -12.4°
